This is the latest recevied weather packets stored in our database for station/object HB9EYW-6. If no packets are shown the sender has not sent any weather packets the latest 10 day(s).
| Time | Temp. | Humidity | Pressure | Rain* | Wind** | Luminosity | Snow |
|---|---|---|---|---|---|---|---|
| 1778247905 | 25.56° C | 23% | 0 hPa | 0 mm | - | - | - |
| 1778247605 | 25° C | 21% | 0 hPa | 0 mm | - | - | - |
| 1778247305 | 25° C | 23% | 0 hPa | 0 mm | - | - | - |
| 1778247005 | 25° C | 22% | 0 hPa | 0 mm | - | - | - |
| 1778246705 | 25° C | 24% | 0 hPa | 0 mm | - | - | - |
| 1778246405 | 25° C | 24% | 0 hPa | 0 mm | - | - | - |
| 1778246105 | 25° C | 23% | 0 hPa | 0 mm | - | - | - |
| 1778245805 | 24.44° C | 26% | 0 hPa | 0 mm | - | - | - |
| 1778245505 | 24.44° C | 25% | 0 hPa | 0 mm | - | - | - |
| 1778245205 | 24.44° C | 25% | 0 hPa | 0 mm | - | - | - |
| 1778244905 | 24.44° C | 27% | 0 hPa | 0 mm | - | - | - |
| 1778244605 | 23.89° C | 26% | 0 hPa | 0 mm | - | - | - |
| 1778244305 | 23.89° C | 27% | 0 hPa | 0 mm | - | - | - |
| 1778244005 | 24.44° C | 28% | 0 hPa | 0 mm | - | - | - |
| 1778243705 | 23.89° C | 28% | 0 hPa | 0 mm | - | - | - |
| 1778243405 | 23.89° C | 28% | 0 hPa | 0 mm | - | - | - |
| 1778243105 | 24.44° C | 27% | 0 hPa | 0 mm | - | - | - |
| 1778242805 | 24.44° C | 29% | 0 hPa | 0 mm | - | - | - |
| 1778242505 | 23.89° C | 30% | 0 hPa | 0 mm | - | - | - |
| 1778242205 | 23.89° C | 30% | 0 hPa | 0 mm | - | - | - |
| 1778241905 | 23.33° C | 34% | 0 hPa | 0 mm | - | - | - |
| 1778241605 | 23.33° C | 34% | 0 hPa | 0 mm | - | - | - |
| 1778241305 | 22.78° C | 34% | 0 hPa | 0 mm | - | - | - |
| 1778241005 | 22.78° C | 30% | 0 hPa | 0 mm | - | - | - |
| 1778240705 | 22.78° C | 33% | 0 hPa | 0 mm | - | - | - |
* Rain latest hour (hover to see other rain measurements)
** Current wind speed in m/s (hover to see current wind gust speed)